"Timestamp","TZ","WindDir_Mean (deg)","WindSpd_Mean (km/h)","WindSpd_Min (km/h)","WindSpd_Max (km/h)","Temp_Mean (deg)","RH_Mean (%)","MSLP_Mean (hPa)","Rain_Acc (mm)","Rain_Intensity (mm/h)","Hail_Acc (hits/cm2)","Hail_Intensity (hits/cm2hr)","Solar_Mean (W/m2)"
2018/06/10 00:00:00.004,n,301,2.16,1.08,2.52,17.3,78.1,1020.72,0,0,0,0,0.028725
2018/06/10 00:01:00.002,n,267,2.88,2.88,3.24,17.3,78.4,1020.72,0,0,0,0,0.031357
2018/06/10 00:02:00.000,n,257,2.88,2.52,2.88,17.3,78.5,1020.72,0,0,0,0,0.031357
2018/06/10 00:03:00.000,n,261,2.16,1.8,2.88,17.3,78.5,1020.72,0,0,0,0,0.028725
2018/06/10 00:04:00.000,n,236,2.16,1.8,2.16,17.2,78.3,1020.72,0,0,0,0,0.029602
2018/06/10 00:05:00.007,n,212,1.08,0.36,1.44,17.2,78.3,1020.72,0,0,0,0,0.031357
2018/06/10 00:06:00.005,n,271,1.08,0.72,1.08,17.2,78.3,1020.72,0,0,0,0,0.030479
2018/06/10 00:07:00.001,n,86,1.08,0.72,1.08,17.2,78.3,1020.62,0,0,0,0,0.029602
2018/06/10 00:08:00.000,n,132,1.08,0.36,1.8,17.2,78.6,1020.62,0,0,0,0,0.027008
2018/06/10 00:09:00.012,n,108,1.08,0.72,1.08,17.2,78.6,1020.62,0,0,0,0,0.026131
2018/06/10 00:10:00.000,n,122,1.08,0.72,1.44,17.2,78.9,1020.62,0,0,0,0,0.029602
2018/06/10 00:11:00.000,n,99,0,0,0.36,17.2,79,1020.62,0,0,0,0,0.027847
2018/06/10 00:12:00.004,n,153,0,0,0,17.2,79,1020.62,0,0,0,0,0.033989
2018/06/10 00:13:00.001,n,55,1.8,1.44,2.52,17.1,79.2,1020.62,0,0,0,0,0.027008
2018/06/10 00:14:00.000,n,44,2.16,1.8,2.52,17.1,79.3,1020.62,0,0,0,0,0.027008
2018/06/10 00:15:00.000,n,49,1.08,1.08,1.44,17.1,79.3,1020.52,0,0,0,0,0.028725
2018/06/10 00:16:00.009,n,137,0.72,0.36,1.08,17.1,79.3,1020.52,0,0,0,0,0.026131
2018/06/10 00:17:00.007,n,240,1.44,1.08,1.8,17,79.3,1020.52,0,0,0,0,0.025253
2018/06/10 00:18:00.004,n,268,2.52,2.16,2.52,17,79.4,1020.52,0,0,0,0,0.028725
2018/06/10 00:19:00.001,n,229,1.8,1.08,2.16,17,79.5,1020.52,0,0,0,0,0.028725
2018/06/10 00:20:00.000,n,235,1.8,1.44,2.16,17,79.5,1020.52,0,0,0,0,0.025253
2018/06/10 00:21:00.003,n,246,2.16,2.16,2.16,17,79.5,1020.52,0,0,0,0,0.026131
2018/06/10 00:22:00.001,n,242,2.52,2.52,2.52,17,79.5,1020.52,0,0,0,0,0.035706
2018/06/10 00:23:00.000,n,249,2.52,2.16,2.52,17,79.4,1020.52,0,0,0,0,0.027008
2018/06/10 00:24:00.000,n,225,2.16,2.16,2.16,16.9,79.5,1020.52,0,0,0,0,0.027847
2018/06/10 00:25:00.008,n,224,0.72,0,1.08,16.9,79.6,1020.52,0,0,0,0,0.028725
2018/06/10 00:26:00.005,n,153,1.08,0.72,1.08,16.9,79.6,1020.52,0,0,0,0,0.029602
2018/06/10 00:27:00.003,n,127,1.08,1.08,1.44,16.9,79.6,1020.52,0,0,0,0,0.026131
2018/06/10 00:28:00.001,n,138,2.16,1.8,2.16,16.9,79.6,1020.52,0,0,0,0,0.027008
2018/06/10 00:29:00.000,n,136,1.8,1.8,2.16,16.9,79.6,1020.52,0,0,0,0,0.026131
2018/06/10 00:30:00.000,n,137,1.44,1.44,1.44,16.9,79.7,1020.52,0,0,0,0,0.023499
2018/06/10 00:31:00.000,n,107,1.44,1.08,1.8,16.9,79.8,1020.42,0,0,0,0,0.023499
2018/06/10 00:32:00.006,n,99,1.44,1.44,1.8,16.9,80,1020.42,0,0,0,0,0.025253
2018/06/10 00:33:00.004,n,44,2.16,2.16,2.16,16.9,80.4,1020.52,0,0,0,0,0.024414
2018/06/10 00:34:00.002,n,81,1.8,1.44,2.16,17,80.5,1020.42,0,0,0,0,0.022621
2018/06/10 00:35:00.000,n,101,2.88,2.52,2.88,17,80.5,1020.52,0,0,0,0,0.027008
2018/06/10 00:36:00.014,n,102,1.8,1.8,2.16,17,80.4,1020.52,0,0,0,0,0.023499
2018/06/10 00:37:00.000,n,149,1.44,1.08,1.44,16.9,80.5,1020.52,0,0,0,0,0.024414
2018/06/10 00:38:00.000,n,152,1.8,1.8,1.8,16.9,80.6,1020.52,0,0,0,0,0.026131
2018/06/10 00:39:00.005,n,148,1.8,1.44,1.8,16.9,80.6,1020.52,0,0,0,0,0.027885
2018/06/10 00:40:00.000,n,144,2.16,2.16,2.88,16.9,80.6,1020.52,0,0,0,0,0.029602
2018/06/10 00:41:00.000,n,151,3.6,3.6,3.96,16.9,80.4,1020.52,0,0,0,0,0.031357
2018/06/10 00:42:00.000,n,163,4.32,4.32,4.68,16.8,80.5,1020.52,0,0,0,0,0.033073
2018/06/10 00:43:00.008,n,159,2.88,2.52,3.24,16.8,80.7,1020.52,0,0,0,0,0.027885
2018/06/10 00:44:00.005,n,169,2.52,2.16,2.52,16.8,80.8,1020.52,0,0,0,0,0.026093
2018/06/10 00:45:00.002,n,169,2.52,2.16,3.24,16.8,80.9,1020.52,0,0,0,0,0.029602
2018/06/10 00:46:00.000,n,175,2.88,2.52,3.24,16.8,80.9,1020.52,0,0,0,0,0.030479
2018/06/10 00:47:00.000,n,161,2.16,1.8,2.88,16.8,80.9,1020.42,0,0,0,0,0.027885
2018/06/10 00:48:00.000,n,162,3.96,3.96,4.32,16.8,80.9,1020.42,0,0,0,0,0.030479
2018/06/10 00:49:00.000,n,153,3.6,3.6,3.6,16.8,80.9,1020.42,0,0,0,0,0.028725
2018/06/10 00:50:00.004,n,156,2.88,2.52,3.24,16.8,81,1020.42,0,0,0,0,0.029602
2018/06/10 00:51:00.001,n,169,3.24,3.24,3.6,16.8,81.1,1020.42,0,0,0,0,0.028725
2018/06/10 00:52:00.000,n,173,3.6,3.24,3.96,16.8,81.1,1020.42,0,0,0,0,0.032234
2018/06/10 00:53:00.013,n,173,3.24,2.88,3.24,16.8,81.1,1020.42,0,0,0,0,0.026093
2018/06/10 00:54:00.010,n,170,3.24,2.88,3.24,16.700002,81.1,1020.42,0,0,0,0,0.027885
2018/06/10 00:55:00.000,n,163,3.24,2.88,3.6,16.700002,81.1,1020.42,0,0,0,0,0.029602
2018/06/10 00:56:00.000,n,167,3.24,2.52,3.6,16.700002,81.2,1020.42,0,0,0,0,0.025253
2018/06/10 00:57:00.002,n,167,3.96,3.96,4.32,16.700002,81.2,1020.42,0,0,0,0,0.025253
2018/06/10 00:58:00.000,n,169,3.96,3.96,4.32,16.700002,81.1,1020.42,0,0,0,0,0.030479
2018/06/10 00:59:00.000,n,169,2.52,1.44,3.24,16.700002,81.2,1020.42,0,0,0,0,0.025253
2018/06/10 01:00:00.009,n,161,1.44,1.44,1.8,16.700002,81.3,1020.42,0,0,0,0,0.025253
2018/06/10 01:01:00.006,n,200,1.08,1.08,1.44,16.700002,81.3,1020.42,0,0,0,0,0.026093
2018/06/10 01:02:00.004,n,215,1.08,0.72,1.8,16.700002,81.3,1020.42,0,0,0,0,0.027885
2018/06/10 01:03:00.001,n,247,1.08,1.08,1.08,16.6,81.3,1020.42,0,0,0,0,0.023499
2018/06/10 01:04:00.000,n,257,3.24,3.24,3.24,16.6,81.1,1020.42,0,0,0,0,0.027008
2018/06/10 01:05:00.000,n,264,2.52,1.8,2.88,16.6,81.2,1020.42,0,0,0,0,0.025253
2018/06/10 01:06:00.000,n,247,2.52,2.52,2.52,16.6,81,1020.42,0,0,0,0,0.026093
2018/06/10 01:07:00.005,n,224,2.52,1.8,2.88,16.6,81.2,1020.32,0,0,0,0,0.024376
2018/06/10 01:08:00.004,n,241,1.08,0.72,1.08,16.6,81.2,1020.32,0,0,0,0,0.027008
2018/06/10 01:09:00.001,n,238,1.08,0.36,1.08,16.6,81.2,1020.32,0,0,0,0,0.023499
2018/06/10 01:10:00.000,n,283,0.36,0,0.36,16.6,81,1020.32,0,0,0,0,0.024376
2018/06/10 01:11:00.012,n,272,0.72,0.36,0.72,16.6,81,1020.32,0,0,0,0,0.025253
2018/06/10 01:12:00.010,n,358,1.44,1.08,1.8,16.6,80.9,1020.32,0,0,0,0,0.026093
2018/06/10 01:13:00.000,n,205,1.08,0.36,1.44,16.6,80.8,1020.32,0,0,0,0,0.027008
2018/06/10 01:14:00.000,n,248,1.44,1.08,1.8,16.6,80.8,1020.22,0,0,0,0,0.027885
2018/06/10 01:15:00.000,n,249,1.08,0.72,1.44,16.6,80.8,1020.22,0,0,0,0,0.025253
2018/06/10 01:16:00.000,n,4,0.72,0.72,0.72,16.6,80.9,1020.22,0,0,0,0,0.023499
2018/06/10 01:17:00.000,n,209,0.72,0.36,0.72,16.6,81.1,1020.22,0,0,0,0,0.026093
2018/06/10 01:18:00.008,n,246,1.8,1.44,2.16,16.6,80.8,1020.22,0,0,0,0,0.025253
2018/06/10 01:19:00.007,n,249,2.16,2.16,2.16,16.6,80.6,1020.22,0,0,0,0,0.021744
2018/06/10 01:20:00.004,n,162,1.8,1.8,1.8,16.5,80.7,1020.22,0,0,0,0,0.023499
2018/06/10 01:21:00.001,n,169,2.52,2.16,2.88,16.5,80.7,1020.22,0,0,0,0,0.023499
2018/06/10 01:22:00.000,n,148,2.16,2.16,2.88,16.5,80.6,1020.22,0,0,0,0,0.022659
2018/06/10 01:23:00.000,n,150,3.24,3.24,3.96,16.5,80.6,1020.22,0,0,0,0,0.024376
2018/06/10 01:24:00.000,n,146,2.88,2.88,3.24,16.6,80.6,1020.22,0,0,0,0,0.024376
2018/06/10 01:25:00.005,n,137,2.16,1.8,2.52,16.6,80.6,1020.22,0,0,0,0,0.021744
2018/06/10 01:26:00.003,n,157,2.88,2.88,3.24,16.5,80.4,1020.22,0,0,0,0,0.023499
2018/06/10 01:27:00.001,n,147,2.16,2.16,2.52,16.5,80.3,1020.22,0,0,0,0,0.026093
2018/06/10 01:28:00.000,n,245,1.8,1.44,2.16,16.5,80.3,1020.22,0,0,0,0,0.020027
2018/06/10 01:29:00.014,n,125,1.44,1.44,1.8,16.5,80.3,1020.22,0,0,0,0,0.022659
2018/06/10 01:30:00.012,n,150,2.16,1.8,2.88,16.5,80.3,1020.22,0,0,0,0,0.023499
2018/06/10 01:31:00.000,n,194,0.72,0.36,1.08,16.5,80.3,1020.22,0,0,0,0,0.018311
2018/06/10 01:32:00.000,n,128,1.44,0.72,1.8,16.5,80.3,1020.22,0,0,0,0,0.022659
2018/06/10 01:33:00.002,n,149,1.8,1.08,2.16,16.5,80.3,1020.22,0,0,0,0,0.020027
2018/06/10 01:34:00.000,n,162,3.24,3.24,3.24,16.5,80.2,1020.22,0,0,0,0,0.020905
2018/06/10 01:35:00.000,n,188,2.16,2.16,2.16,16.5,80.2,1020.22,0,0,0,0,0.020027
2018/06/10 01:36:00.000,n,173,1.8,1.08,2.16,16.5,80.1,1020.22,0,0,0,0,0.020027
2018/06/10 01:37:00.006,n,169,1.44,0.72,1.8,16.5,80,1020.22,0,0,0,0,0.01915
2018/06/10 01:38:00.004,n,179,3.96,3.6,4.32,16.5,79.8,1020.22,0,0,0,0,0.01915
2018/06/10 01:39:00.001,n,167,5.4,5.04,5.4,16.5,79.5,1020.22,0,0,0,0,0.020905
2018/06/10 01:40:00.000,n,146,4.32,2.88,5.04,16.5,79.5,1020.22,0,0,0,0,0.020027
2018/06/10 01:41:00.000,n,158,4.32,3.6,5.4,16.4,79.5,1020.22,0,0,0,0,0.022659
2018/06/10 01:42:00.000,n,159,5.4,5.04,5.76,16.4,79.4,1020.12,0,0,0,0,0.01915
2018/06/10 01:43:00.005,n,170,3.6,3.24,3.96,16.4,79.5,1020.12,0,0,0,0,0.021744
2018/06/10 01:44:00.003,n,181,3.96,3.6,3.96,16.4,79.5,1020.12,0,0,0,0,0.022659
2018/06/10 01:45:00.000,n,150,2.88,1.8,3.24,16.4,79.4,1020.12,0,0,0,0,0.022659
2018/06/10 01:46:00.000,n,146,4.68,4.68,4.68,16.5,79.4,1020.12,0,0,0,0,0.023499
2018/06/10 01:47:00.010,n,147,4.32,3.6,4.68,16.5,79.4,1020.12,0,0,0,0,0.020027
2018/06/10 01:48:00.007,n,167,2.88,2.52,3.24,16.5,79.4,1020.02,0,0,0,0,0.020905
2018/06/10 01:49:00.000,n,162,3.6,3.24,3.6,16.5,79.4,1020.02,0,0,0,0,0.020027
2018/06/10 01:50:00.001,n,168,0.72,0.36,1.44,16.4,79.5,1020.02,0,0,0,0,0.033035
2018/06/10 01:51:00.000,n,64,1.8,1.08,2.16,16.5,80.1,1020.02,0,0,0,0,0.034828
2018/06/10 01:52:00.000,n,158,0.36,0.36,1.08,16.5,80,1020.02,0,0,0,0,0.037422
2018/06/10 01:53:00.007,n,148,0.72,0.72,1.08,16.5,79.7,1020.02,0,0,0,0,0.032196
2018/06/10 01:54:00.005,n,230,1.8,1.08,2.16,16.5,79.7,1020.02,0,0,0,0,0.044403
2018/06/10 01:55:00.001,n,217,2.16,2.16,2.52,16.5,79.8,1020.02,0,0,0,0,0.036545
2018/06/10 01:56:00.000,n,239,1.8,1.44,2.16,16.4,79.8,1020.12,0,0,0,0,0.031319
2018/06/10 01:57:00.012,n,250,1.8,1.8,2.16,16.4,79.8,1020.12,0,0,0,0,0.033035
2018/06/10 01:58:00.000,n,254,2.88,2.52,2.88,16.4,79.8,1020.12,0,0,0,0,0.033035
2018/06/10 01:59:00.000,n,256,4.32,3.96,4.32,16.4,79.8,1020.12,0,0,0,0,0.031319
2018/06/10 02:00:00.004,n,264,4.68,4.32,5.04,16.4,79.8,1020.12,0,0,0,0,0.033035
2018/06/10 02:01:00.001,n,252,3.6,3.24,4.32,16.4,79.8,1020.12,0,0,0,0,0.033035
2018/06/10 02:02:00.000,n,245,3.24,2.88,3.6,16.4,79.7,1020.12,0,0,0,0,0.030441
2018/06/10 02:03:00.000,n,276,1.08,1.08,1.8,16.4,79.7,1020.12,0,0,0,0,0.032196
2018/06/10 02:04:00.009,n,223,2.16,0.36,3.6,16.4,79.7,1020.12,0,0,0,0,0.039177
2018/06/10 02:05:00.007,n,235,3.24,2.88,3.6,16.4,79.6,1020.12,0,0,0,0,0.032196
2018/06/10 02:06:00.003,n,191,0.72,0.72,1.08,16.4,79.6,1020.12,0,0,0,0,0.033035
2018/06/10 02:07:00.001,n,217,0.72,0.36,1.08,16.4,79.6,1020.12,0,0,0,0,0.034828
2018/06/10 02:08:00.000,n,280,0.72,0.36,1.44,16.4,79.7,1020.02,0,0,0,0,0.037422
2018/06/10 02:09:00.000,n,111,2.88,2.52,3.24,16.4,79.6,1020.02,0,0,0,0,0.033035
2018/06/10 02:10:00.000,n,160,2.52,1.08,3.24,16.4,79.7,1020.02,0,0,0,0,0.029564
2018/06/10 02:11:00.006,n,128,2.52,2.16,2.88,16.4,79.7,1020.02,0,0,0,0,0.033035
2018/06/10 02:12:00.003,n,138,3.96,3.6,4.32,16.4,79.6,1020.02,0,0,0,0,0.032196
2018/06/10 02:13:00.000,n,156,4.68,4.32,4.68,16.4,79.4,1019.92,0,0,0,0,0.036545
2018/06/10 02:14:00.013,n,147,5.04,5.04,5.04,16.4,79.3,1019.92,0,0,0,0,0.033035
2018/06/10 02:15:00.011,n,165,6.48,6.48,6.84,16.4,79.3,1019.92,0,0,0,0,0.033035
2018/06/10 02:16:00.000,n,159,6.48,6.12,6.84,16.3,79.3,1019.92,0,0,0,0,0.033035
2018/06/10 02:17:00.000,n,177,5.76,5.04,6.12,16.3,79.4,1019.92,0,0,0,0,0.030441
2018/06/10 02:18:00.003,n,183,4.68,4.68,5.04,16.3,79.5,1019.92,0,0,0,0,0.033035
2018/06/10 02:19:00.001,n,186,4.68,4.32,6.48,16.3,79.5,1019.92,0,0,0,0,0.038261
2018/06/10 02:20:00.000,n,123,2.52,1.08,3.96,16.3,79.5,1020.02,0,0,0,0,0.028687
2018/06/10 02:21:00.000,n,209,2.16,2.16,2.88,16.3,79.6,1020.02,0,0,0,0,0.033913
2018/06/10 02:22:00.008,n,246,3.24,2.88,3.6,16.3,79.6,1020.02,0,0,0,0,0.035667
2018/06/10 02:23:00.005,n,242,3.24,2.88,3.24,16.3,79.6,1020.02,0,0,0,0,0.034828
2018/06/10 02:24:00.002,n,222,2.16,1.44,2.88,16.3,79.6,1020.02,0,0,0,0,0.029564
2018/06/10 02:25:00.000,n,237,2.16,1.8,2.52,16.3,79.7,1020.02,0,0,0,0,0.031319
2018/06/10 02:26:00.000,n,240,1.8,1.8,2.16,16.4,80.1,1020.02,0,0,0,0,0.033913
2018/06/10 02:27:00.000,n,216,1.8,1.8,2.16,16.4,79.8,1020.02,0,0,0,0,0.031319
2018/06/10 02:28:00.000,n,286,1.08,0.36,1.8,16.4,79.7,1020.02,0,0,0,0,0.028687
2018/06/10 02:29:00.004,n,197,1.08,1.08,1.44,16.4,79.7,1020.02,0,0,0,0,0.031319
2018/06/10 02:30:00.001,n,273,3.24,3.24,3.96,16.4,79.6,1020.02,0,0,0,0,0.032196
2018/06/10 02:31:00.000,n,233,3.6,2.88,4.68,16.4,79.5,1020.02,0,0,0,0,0.035667
2018/06/10 02:32:00.012,n,204,2.16,1.44,3.24,16.3,79.7,1020.02,0,0,0,0,0.033035
2018/06/10 02:33:00.009,n,25,1.44,0.72,2.16,16.3,79.4,1020.02,0,0,0,0,0.033913
2018/06/10 02:34:00.000,n,212,3.96,3.6,4.68,16.3,79.2,1020.02,0,0,0,0,0.031319
2018/06/10 02:35:00.003,n,242,2.52,0.72,3.6,16.3,79.3,1020.02,0,0,0,0,0.031319
2018/06/10 02:36:00.000,n,259,1.44,1.44,2.16,16.3,79.3,1020.02,0,0,0,0,0.032196
2018/06/10 02:37:00.000,n,162,2.52,1.44,3.6,16.3,79.2,1020.02,0,0,0,0,0.028687
2018/06/10 02:38:00.000,n,167,3.96,2.52,5.4,16.3,79,1020.02,0,0,0,0,0.032196
2018/06/10 02:39:00.008,n,213,1.08,1.08,1.44,16.3,79,1020.02,0,0,0,0,0.029564
2018/06/10 02:40:00.005,n,146,2.52,2.16,2.52,16.3,79.2,1020.02,0,0,0,0,0.033035
2018/06/10 02:41:00.002,n,184,2.52,1.08,3.24,16.3,79.2,1020.02,0,0,0,0,0.030441
2018/06/10 02:42:00.000,n,290,1.8,1.44,2.16,16.3,79.3,1020.02,0,0,0,0,0.029564
2018/06/10 02:43:00.000,n,145,2.88,2.16,3.96,16.4,79.3,1020.02,0,0,0,0,0.032196
2018/06/10 02:44:00.000,n,145,1.44,1.08,2.16,16.4,79.2,1020.02,0,0,0,0,0.028687
2018/06/10 02:45:00.000,n,153,3.96,1.8,5.4,16.4,79.3,1020.02,0,0,0,0,0.029564
2018/06/10 02:46:00.006,n,183,9.72,7.92,10.8,16.4,79.3,1020.02,0,0,0,0,0.028687
2018/06/10 02:47:00.003,n,277,0.36,0.36,0.72,16.4,79.3,1020.02,0,0,0,0,0.035667
2018/06/10 02:48:00.000,n,253,2.16,1.8,2.52,16.3,79.3,1020.02,0,0,0,0,0.027847
2018/06/10 02:49:00.000,n,253,2.52,2.16,2.88,16.4,79.6,1020.12,0,0,0,0,0.030441
2018/06/10 02:50:00.010,n,226,2.88,2.52,3.24,16.4,79.6,1020.12,0,0,0,0,0.02697
2018/06/10 02:51:00.008,n,255,0.36,0,0.36,16.4,79.5,1020.12,0,0,0,0,0.027847
2018/06/10 02:52:00.000,n,146,0.36,0,0.72,16.4,79.7,1020.12,0,0.1,0,0,0.028687
2018/06/10 02:53:00.000,n,133,2.88,1.08,4.68,16.4,79.6,1020.12,0,0.1,0,0,0.031319
2018/06/10 02:54:00.000,n,155,6.84,4.32,9.36,16.4,79.7,1020.12,0,0,0,0,0.024338
2018/06/10 02:55:00.007,n,147,3.6,1.08,6.84,16.4,79.8,1020.12,0,0,0,0,0.027847
2018/06/10 02:56:00.000,n,205,4.68,3.96,5.04,16.3,80,1020.02,0,0,0,0,0.026093
2018/06/10 02:57:00.002,n,163,2.88,1.08,4.68,16.3,80.1,1020.02,0,0,0,0,0.029564
2018/06/10 02:58:00.007,n,170,4.68,3.96,5.4,16.3,80.2,1020.02,0,0,0,0,0.028687
2018/06/10 02:59:00.013,n,167,3.24,2.88,3.96,16.3,80.4,1020.02,0,0,0,0,0.033035
2018/06/10 03:00:00.002,n,152,3.96,3.6,4.32,16.200002,80.5,1020.02,0,0,0,0,0.02697
2018/06/10 03:01:00.000,n,140,5.04,4.68,5.04,16.200002,80.6,1020.02,0,0,0,0,0.02697
2018/06/10 03:02:00.000,n,156,5.76,4.68,6.12,16.200002,80.7,1020.02,0,0,0,0,0.028687
2018/06/10 03:03:00.001,n,150,3.24,2.52,3.24,16.200002,80.8,1020.02,0,0,0,0,0.026093
2018/06/10 03:04:00.007,n,141,2.16,0.36,2.88,16.200002,81,1020.02,0,0,0,0,0.028687
2018/06/10 03:05:00.000,n,122,2.16,2.16,2.52,16.1,81.2,1020.02,0,0,0,0,0.026093
2018/06/10 03:06:00.001,n,146,1.08,0.72,1.08,16.1,81.3,1020.02,0,0,0,0,0.026093
2018/06/10 03:07:00.007,n,203,2.52,2.16,2.52,16.1,81.3,1020.02,0,0,0,0,0.02697
2018/06/10 03:08:00.013,n,192,2.52,1.8,2.88,16.1,81.4,1020.02,0,0,0,0,0.025215
2018/06/10 03:09:00.002,n,177,3.24,2.88,3.6,16.1,81.5,1020.02,0,0,0,0,0.026093
2018/06/10 03:10:00.000,n,191,3.6,3.24,4.32,16.1,81.6,1020.12,0,0,0,0,0.031319
2018/06/10 03:11:00.000,n,173,1.8,0.72,2.88,16.1,81.6,1020.12,0,0,0,0,0.022621
2018/06/10 03:12:00.002,n,222,1.8,1.8,2.16,16.1,81.7,1020.12,0,0,0,0,0.022621
2018/06/10 03:13:00.007,n,161,0.36,0.36,0.72,16.1,81.8,1020.02,0,0,0,0,0.024338
2018/06/10 03:14:00.000,n,56,1.8,1.08,2.52,16.1,82,1020.02,0,0,0,0,0.027847
2018/06/10 03:15:00.001,n,230,1.8,1.44,2.16,16.1,82,1020.02,0,0,0,0,0.025253
2018/06/10 03:16:00.005,n,248,3.96,3.6,4.32,16.1,81.9,1020.02,0,0,0,0,0.030479
2018/06/10 03:17:00.011,n,234,2.16,2.16,2.52,16.1,82,1020.12,0,0,0,0,0.040054
2018/06/10 03:18:00.000,n,282,2.16,1.44,3.6,16.1,82.1,1020.12,0,0,0,0,0.033951
2018/06/10 03:19:00.000,n,37,0.72,0.36,1.44,16.1,82.2,1020.12,0,0,0,0,0.028763
2018/06/10 03:20:00.000,n,213,1.44,1.08,1.8,16.1,82.2,1020.12,0,0,0,0,0.028763
2018/06/10 03:21:00.002,n,287,2.16,1.8,2.52,16.1,82.3,1020.02,0,0,0,0,0.02697
2018/06/10 03:22:00.007,n,226,2.16,1.44,2.52,16.200002,82.2,1020.02,0,0,0,0,0.027847
2018/06/10 03:23:00.000,n,198,1.8,1.44,2.52,16.1,82,1020.02,0,0,0,0,0.029602
2018/06/10 03:24:00.001,n,112,1.44,1.08,1.44,16.1,82,1020.02,0,0,0,0,0.033112
2018/06/10 03:25:00.007,n,312,1.44,0.36,2.88,16.1,82,1020.02,0,0,0,0,0.028763
2018/06/10 03:26:00.012,n,229,1.44,1.08,1.8,16.1,82,1020.02,0,0,0,0,0.02697
2018/06/10 03:27:00.000,n,230,1.8,1.44,2.16,16.1,82.1,1020.02,0,0,0,0,0.029602
2018/06/10 03:28:00.000,n,238,3.6,3.24,4.68,16.1,82.4,1020.12,0,0,0,0,0.028763
2018/06/10 03:29:00.000,n,252,3.24,2.88,3.96,16.1,82.3,1020.12,0,0,0,0,0.029602
2018/06/10 03:30:00.001,n,245,1.8,1.44,2.16,16.1,82.1,1020.12,0,0,0,0,0.028763
2018/06/10 03:31:00.006,n,251,5.04,4.68,5.4,16.1,82.1,1020.12,0,0,0,0,0.027847
2018/06/10 03:32:00.000,n,258,5.4,4.68,6.12,16.1,82.1,1020.22,0,0,0,0,0.02697
2018/06/10 03:33:00.000,n,221,2.52,2.16,3.24,16.1,82.2,1020.22,0,0,0,0,0.028763
2018/06/10 03:34:00.005,n,255,4.32,3.96,4.68,16.1,82.4,1020.22,0,0,0,0,0.026131
2018/06/10 03:35:00.010,n,252,3.96,3.6,4.32,16.1,82.3,1020.22,0,0,0,0,0.028763
2018/06/10 03:36:00.016,n,259,2.52,2.16,2.88,16.1,82.3,1020.22,0,0,0,0,0.02697
2018/06/10 03:37:00.000,n,229,4.68,3.96,4.68,16,82.1,1020.22,0,0,0,0,0.024376
2018/06/10 03:38:00.000,n,209,1.44,1.08,2.16,16,82.2,1020.22,0.01,0.3,0,0,0.026131
2018/06/10 03:39:00.000,n,191,3.24,3.24,3.6,16,82.2,1020.22,0.01,0,0,0,0.025253
2018/06/10 03:40:00.006,n,222,1.8,1.08,2.16,16,82.2,1020.22,0.01,0,0,0,0.024376
2018/06/10 03:41:00.000,n,154,3.96,3.24,4.32,16,82.2,1020.12,0.01,0,0,0,0.032196
2018/06/10 03:42:00.000,n,253,1.8,1.08,2.52,16,82.2,1020.12,0.01,0,0,0,0.02697
2018/06/10 03:43:00.005,n,258,3.96,3.6,4.32,16,82.5,1020.12,0.01,0,0,0,0.02697
2018/06/10 03:44:00.010,n,224,1.44,1.08,1.44,16,82.6,1020.12,0.01,0,0,0,0.02697
2018/06/10 03:45:00.015,n,232,1.44,1.08,1.8,16,82.6,1020.12,0.01,0,0,0,0.033112
2018/06/10 03:46:00.000,n,207,1.08,0.72,1.08,16,82.5,1020.12,0.01,0,0,0,0.027847
2018/06/10 03:47:00.000,n,232,2.52,2.16,2.88,16,82.3,1020.12,0.01,0,0,0,0.033951
2018/06/10 03:48:00.000,n,232,3.6,2.88,3.96,16,82.2,1020.12,0.01,0,0,0,0.024376
2018/06/10 03:49:00.004,n,207,1.8,1.44,2.16,15.9,82.2,1020.12,0.01,0,0,0,0.023499
2018/06/10 03:50:00.000,n,236,2.52,2.16,2.52,15.9,82.2,1020.02,0.01,0,0,0,0.023499
2018/06/10 03:51:00.000,n,216,1.08,0.72,1.44,15.9,82.3,1020.02,0.01,0,0,0,0.021782
2018/06/10 03:52:00.004,n,136,2.52,1.08,3.6,15.9,82.4,1020.02,0.01,0,0,0,0.030479
2018/06/10 03:53:00.010,n,184,0.72,0.72,1.08,15.9,82.4,1020.02,0.01,0,0,0,0.025253
2018/06/10 03:54:00.015,n,231,1.8,1.44,1.8,15.9,82.7,1020.02,0.01,0,0,0,0.029602
2018/06/10 03:55:00.000,n,177,0.72,0.36,0.72,15.9,82.6,1020.02,0.01,0,0,0,0.023499
2018/06/10 03:56:00.000,n,185,0.72,0.36,1.08,15.9,82.5,1020.02,0.01,0,0,0,0.020027
2018/06/10 03:57:00.000,n,261,2.16,2.16,2.52,15.9,82.6,1020.02,0.01,0,0,0,0.023499
2018/06/10 03:58:00.005,n,274,4.32,4.32,4.68,15.9,82.6,1020.02,0.01,0,0,0,0.027847
2018/06/10 03:59:00.010,n,276,3.96,2.88,5.04,15.8,82.6,1020.02,0.01,0,0,0,0.020027
2018/06/10 04:00:00.000,n,259,5.76,4.68,7.56,15.8,82.6,1020.02,0.01,0,0,0,0.028763
2018/06/10 04:01:00.004,n,274,7.2,6.48,8.28,15.8,82.6,1020.02,0.01,0,0,0,0.026131
2018/06/10 04:02:00.009,n,269,5.04,3.96,6.12,15.8,82.6,1020.02,0.01,0,0,0,0.022621
2018/06/10 04:03:00.015,n,258,6.48,6.12,6.84,15.8,82.6,1020.02,0.01,0,0,0,0.028763
2018/06/10 04:04:00.000,n,251,5.76,5.04,7.2,15.8,82.6,1020.02,0.01,0,0,0,0.028763
2018/06/10 04:05:00.000,n,232,4.68,3.96,5.4,15.8,82.8,1020.02,0.01,0,0,0,0.032234
2018/06/10 04:06:00.000,n,262,3.6,2.88,4.32,15.7,82.7,1020.02,0.01,0,0,0,0.02964
2018/06/10 04:07:00.000,n,239,5.4,5.04,6.12,15.7,82.8,1020.02,0.01,0,0,0,0.028763
2018/06/10 04:08:00.006,n,208,1.8,1.8,2.16,15.7,82.8,1020.02,0.01,0,0,0,0.031357
2018/06/10 04:09:00.011,n,265,3.96,2.52,4.32,15.7,82.8,1020.02,0.01,0,0,0,0.031357
2018/06/10 04:10:00.000,n,270,2.88,2.52,3.6,15.7,82.8,1020.02,0.01,0,0,0,0.027885
2018/06/10 04:11:00.005,n,280,5.04,4.68,5.4,15.7,82.7,1020.02,0.01,0,0,0,0.027885
2018/06/10 04:12:00.011,n,246,3.24,1.8,4.32,15.7,82.7,1020.02,0.01,0,0,0,0.02964
2018/06/10 04:13:00.000,n,274,7.2,2.52,8.28,15.7,82.6,1020.12,0.01,0,0,0,0.027008
2018/06/10 04:14:00.000,n,264,7.56,6.84,9,15.7,82.6,1020.12,0.01,0,0,0,0.028763
2018/06/10 04:15:00.000,n,268,10.440002,9.72,11.88,15.7,82.6,1020.12,0.01,0,0,0,0.027885
2018/06/10 04:16:00.000,n,254,7.2,6.12,7.56,15.7,82.7,1020.12,0.01,0,0,0,0.030479
2018/06/10 04:17:00.005,n,239,5.4,5.04,5.76,15.7,82.6,1020.12,0.01,0,0,0,0.026131
2018/06/10 04:18:00.000,n,286,7.2,6.48,7.92,15.7,82.7,1020.22,0.01,0,0,0,0.028763
2018/06/10 04:19:00.001,n,271,4.68,3.24,5.76,15.7,82.8,1020.22,0.01,0,0,0,0.027008
2018/06/10 04:20:00.006,n,255,2.52,0.36,3.96,15.7,83.2,1020.22,0.01,0,0,0,0.027008
2018/06/10 04:21:00.013,n,184,1.08,0.72,1.44,15.7,82.8,1020.22,0.01,0,0,0,0.02964
2018/06/10 04:22:00.001,n,264,4.68,3.24,7.2,15.7,82.9,1020.22,0.01,0,0,0,0.027885
2018/06/10 04:23:00.000,n,249,3.6,2.88,4.32,15.7,82.8,1020.22,0.01,0,0,0,0.030479
2018/06/10 04:24:00.000,n,239,2.88,2.16,4.68,15.7,82.6,1020.22,0.01,0,0,0,0.033112
2018/06/10 04:25:00.001,n,246,3.96,2.52,4.68,15.7,82.7,1020.22,0.01,0,0,0,0.028763
2018/06/10 04:26:00.008,n,265,6.12,5.76,6.48,15.7,82.7,1020.22,0.01,0,0,0,0.030479
2018/06/10 04:27:00.000,n,272,5.4,5.04,5.76,15.7,82.8,1020.22,0.01,0,0,0,0.027008
2018/06/10 04:28:00.001,n,257,6.84,5.04,8.28,15.7,82.7,1020.22,0.01,0,0,0,0.03746
2018/06/10 04:29:00.008,n,272,5.4,4.68,6.84,15.7,82.8,1020.22,0.01,0,0,0,0.030479
2018/06/10 04:30:00.012,n,267,9.72,8.64,11.88,15.7,82.5,1020.22,0.01,0,0,0,0.033989
2018/06/10 04:31:00.000,n,264,6.84,6.12,7.92,15.7,82.5,1020.22,0.01,0,0,0,0.031357
2018/06/10 04:32:00.000,n,254,7.2,6.48,7.56,15.7,82.5,1020.12,0.01,0,0,0,0.027008
2018/06/10 04:33:00.000,n,228,1.08,1.08,1.08,15.7,82.5,1020.12,0.01,0,0,0,0.02964
2018/06/10 04:34:00.001,n,277,7.2,5.76,8.28,15.7,82.5,1020.12,0.01,0,0,0,0.030479
2018/06/10 04:35:00.006,n,197,4.68,3.24,6.12,15.7,82.5,1020.12,0.01,0,0,0,0.035706
2018/06/10 04:36:00.000,n,11,1.44,0.36,2.16,15.7,82.6,1020.12,0.01,0,0,0,0.027008
2018/06/10 04:37:00.002,n,126,1.08,1.08,1.44,15.8,82.7,1020.12,0.01,0,0,0,0.03746
2018/06/10 04:38:00.007,n,282,4.32,2.16,5.4,15.8,82.9,1020.12,0.01,0,0,0,0.02964
2018/06/10 04:39:00.012,n,160,1.08,0,2.16,15.8,82.8,1020.12,0.01,0,0,0,0.02964
2018/06/10 04:40:00.001,n,175,1.44,0.36,3.96,15.8,82.6,1020.12,0.01,0,0,0,0.030479
2018/06/10 04:41:00.000,n,197,2.16,1.8,2.52,15.8,82.5,1020.12,0.01,0,0,0,0.028763
2018/06/10 04:42:00.000,n,252,3.6,1.8,4.68,15.8,82.4,1020.12,0.01,0,0,0,0.027008
2018/06/10 04:43:00.001,n,258,3.6,3.24,4.32,15.8,82.3,1020.12,0.02,0.3,0,0,0.034866
2018/06/10 04:44:00.008,n,248,5.04,3.96,5.76,15.8,82.3,1020.12,0.02,0,0,0,0.027885
2018/06/10 04:45:00.000,n,265,4.68,3.96,5.76,15.9,82.2,1020.12,0.04,1.1,0,0,0.027885
2018/06/10 04:46:00.000,n,254,6.12,5.4,6.84,15.9,82.3,1020.12,0.06,1.1,0,0,0.031357
2018/06/10 04:47:00.013,n,225,3.6,3.24,4.68,15.9,82.1,1020.12,0.08,1.1,0,0,0.028763
2018/06/10 04:48:00.010,n,232,3.6,3.24,4.32,15.9,82.2,1020.22,0.13,2.9,0,0,0.03746
2018/06/10 04:49:00.000,n,281,4.68,3.96,5.04,15.9,82.4,1020.22,0.13,0.2,0,0,0.030479
2018/06/10 04:50:00.000,n,263,5.76,5.4,6.48,15.9,82.4,1020.22,0.13,0,0,0,0.036583
2018/06/10 04:51:00.000,n,262,7.2,6.48,7.92,15.9,82.2,1020.22,0.13,0,0,0,0.030479